TimeMST,TemperatureF,Dew PointF,Humidity,Sea Level PressureIn,VisibilityMPH,Wind Direction,Wind SpeedMPH,Gust SpeedMPH,PrecipitationIn,Events,Conditions,WindDirDegrees,DateUTC
12:53 AM,9.0,3.9,80,30.57,6.0,SE,5.8,-,N/A,,Haze,130,2013-01-05 07:53:00
1:53 AM,9.0,3.9,80,30.58,6.0,SSE,5.8,-,N/A,,Haze,160,2013-01-05 08:53:00
2:53 AM,9.0,3.9,80,30.61,6.0,East,4.6,-,N/A,,Haze,100,2013-01-05 09:53:00
3:53 AM,8.1,3.0,80,30.63,8.0,SE,6.9,-,N/A,,Scattered Clouds,140,2013-01-05 10:53:00
4:53 AM,7.0,1.9,80,30.63,8.0,SSE,4.6,-,N/A,,Partly Cloudy,160,2013-01-05 11:53:00
5:53 AM,7.0,1.9,80,30.65,8.0,SE,6.9,-,N/A,,Partly Cloudy,130,2013-01-05 12:53:00
6:53 AM,6.1,1.9,83,30.66,8.0,SSE,6.9,-,N/A,,Clear,150,2013-01-05 13:53:00
7:53 AM,7.0,1.9,80,30.67,6.0,SE,5.8,-,N/A,,Haze,130,2013-01-05 14:53:00
8:13 AM,7.0,1.9,80,30.47,2.0,ESE,5.8,-,N/A,,Haze,110,2013-01-05 15:13:00
8:53 AM,8.1,3.9,83,30.68,2.5,ESE,5.8,-,N/A,,Partly Cloudy,120,2013-01-05 15:53:00
9:41 AM,10.0,5.0,80,30.50,3.0,SE,4.6,-,N/A,,Haze,130,2013-01-05 16:41:00
9:53 AM,10.9,5.0,77,30.69,3.0,SE,5.8,-,N/A,,Haze,140,2013-01-05 16:53:00
10:53 AM,12.9,7.0,77,30.66,3.0,SSE,5.8,-,N/A,,Haze,160,2013-01-05 17:53:00
11:53 AM,18.0,9.0,68,30.64,3.0,Calm,Calm,-,N/A,,Haze,0,2013-01-05 18:53:00
12:53 PM,18.0,10.0,71,30.61,3.0,North,6.9,-,N/A,,Haze,350,2013-01-05 19:53:00
1:53 PM,19.9,10.0,65,30.58,3.0,North,4.6,-,N/A,,Haze,360,2013-01-05 20:53:00
2:53 PM,19.0,10.9,71,30.57,3.0,North,6.9,-,N/A,,Haze,360,2013-01-05 21:53:00
3:53 PM,18.0,10.0,71,30.58,3.0,North,6.9,-,N/A,,Haze,350,2013-01-05 22:53:00
4:53 PM,15.1,8.1,74,30.58,5.0,North,8.1,-,N/A,,Haze,360,2013-01-05 23:53:00
5:53 PM,12.0,7.0,80,30.57,6.0,North,6.9,-,N/A,,Haze,360,2013-01-06 00:53:00
6:53 PM,10.9,7.0,84,30.58,4.0,NNW,6.9,-,N/A,,Partly Cloudy,340,2013-01-06 01:53:00
7:53 PM,8.1,5.0,87,30.56,4.0,North,4.6,-,N/A,,Partly Cloudy,350,2013-01-06 02:53:00
8:53 PM,10.0,6.1,84,30.55,4.0,WSW,3.5,-,N/A,,Partly Cloudy,250,2013-01-06 03:53:00
9:53 PM,8.1,6.1,92,30.53,4.0,SW,3.5,-,N/A,,Partly Cloudy,230,2013-01-06 04:53:00
10:53 PM,9.0,5.0,84,30.51,5.0,SSW,3.5,-,N/A,,Partly Cloudy,210,2013-01-06 05:53:00
11:53 PM,9.0,5.0,84,30.47,6.0,Calm,Calm,-,N/A,,Clear,0,2013-01-06 06:53:00